Wind_Speed
20 21 17 21 21 16 16 17 17 18 16 14 13 16 18 21 15 16 17 19 20 20 19 19 18 16 17 17 15 13 14 14 13 15 20 20 20 20 24 27 25 25 24 23 20 18 17 15 14
18 20 18 19 28 7 15 13 14 16 15 14 12 12 16 13 20 16 17 19 19 19 18 17 18 16 16 14 13 12 13 13 15 17 19 22 24 22 25 26 24 24 22 19 17 15 15 14 14
18 21 18 18 12 12 12 15 13 14 15 14 13 12 14 15 18 18 17 20 19 17 17 16 16 14 14 14 13 11 13 18 13 12 19 24 27 24 24 24 23 22 19 16 14 14 14 15 15
20 23 21 18 14 12 14 14 14 14 15 14 12 11 13 16 18 19 19 19 19 17 16 15 14 12 11 13 13 12 11 15 9 16 26 27 25 24 24 23 21 18 16 14 14 16 16 15 16
19 13 21 17 15 12 14 14 13 13 14 14 13 10 11 13 15 17 18 19 18 17 17 15 14 12 12 13 14 13 12 14 11 19 30 25 25 25 23 20 18 16 15 16 16 17 17 17 17
14 20 19 14 13 13 14 13 11 11 12 14 14 12 10 12 14 15 16 17 16 15 15 14 13 12 14 14 16 10 10 16 18 29 28 25 24 23 21 18 15 14 16 17 19 19 19 19 19
18 10 12 12 12 13 16 11 9 10 9 10 12 12 12 15 17 15 15 16 15 13 13 12 10 16 17 20 21 18 22 32 32 28 22 25 23 22 18 16 15 15 16 20 20 20 21 22 21
14 16 13 12 10 12 15 13 8 7 8 9 10 11 9 12 17 18 18 16 14 13 12 12 15 23 25 23 21 21 22 24 24 23 23 26 23 20 16 15 16 16 19 20 20 20 22 22 22
11 14 11 7 9 10 13 13 11 7 7 8 10 11 9 8 13 15 16 15 14 13 12 16 21 20 22 22 18 19 19 20 22 24 25 24 22 18 15 17 18 19 19 20 20 21 22 21 22
9 5 6 9 10 9 9 12 12 11 6 8 8 9 11 8 8 9 10 12 13 14 13 14 16 18 19 17 19 18 19 19 21 26 24 22 20 17 16 18 19 18 18 20 21 22 21 19 20
10 9 7 6 9 8 7 9 12 12 9 8 10 6 7 8 8 9 8 7 10 12 13 14 15 16 16 16 17 19 19 21 24 24 23 20 18 17 17 18 19 18 20 19 21 21 20 17 18
5 4 4 4 6 6 6 7 10 10 11 8 6 7 5 7 7 7 7 7 8 10 12 12 16 15 16 15 16 20 21 22 24 24 21 18 17 17 17 18 19 19 20 19 18 21 18 17 17
4 4 4 3 4 5 5 5 6 7 8 9 7 6 5 5 7 7 8 9 8 9 10 13 14 15 16 15 17 19 21 23 25 23 20 18 17 18 17 18 19 19 19 20 19 18 17 14 16
2 8 4 2 1 4 8 3 3 3 4 6 6 6 6 6 6 6 6 7 9 9 11 13 15 15 16 16 17 18 20 24 26 23 20 18 17 18 18 18 19 20 21 20 19 18 16 13 13
5 6 10 8 6 5 3 3 2 1 1 2 4 5 5 8 6 6 8 7 9 10 11 13 15 17 16 15 15 16 19 23 26 23 19 17 17 18 19 18 19 20 21 21 21 18 16 12 12
4 2 9 10 7 2 3 7 4 4 3 2 0 2 3 5 6 6 7 7 8 11 12 12 14 16 17 17 15 15 17 22 26 23 20 18 18 19 19 18 18 20 21 21 21 18 15 13 12
7 10 12 11 3 5 1 3 2 4 2 2 2 2 0 1 2 3 4 8 7 8 13 13 13 16 19 19 18 17 18 23 26 22 19 17 17 19 19 18 15 16 19 19 19 18 16 11 10
12 9 12 10 8 7 10 8 3 3 5 1 3 4 4 4 4 3 3 4 8 8 9 13 13 16 17 19 19 19 20 25 26 23 19 16 16 19 19 18 15 14 16 17 17 16 13 11 8
16 13 10 15 13 11 11 7 6 3 2 2 4 5 7 8 7 7 6 5 6 11 11 11 14 14 17 20 19 20 24 27 26 23 19 16 16 19 19 19 15 14 13 15 15 14 13 11 7
18 18 11 18 14 13 14 13 9 7 3 3 3 5 7 12 10 10 10 8 6 9 12 14 14 13 17 18 18 20 26 28 26 22 18 16 15 16 19 19 17 14 13 14 14 13 12 11 9
16 19 21 17 16 16 17 4 13 14 10 9 10 9 9 10 13 13 12 11 11 10 13 15 16 16 16 16 16 20 26 27 24 22 20 17 15 14 15 18 18 16 14 12 12 10 10 8 8
16 24 16 16 16 14 19 6 9 19 17 15 16 16 14 13 13 15 17 15 14 14 13 15 16 16 16 15 18 23 27 28 27 24 22 20 17 15 13 14 18 18 18 13 14 13 10 12 9
25 20 18 20 18 21 24 19 10 16 22 23 23 23 23 16 15 16 17 20 19 16 16 16 18 19 17 17 20 25 26 28 27 25 22 20 17 15 14 13 13 16 19 18 19 16 18 16 16
23 22 22 22 22 24 20 19 13 16 16 24 31 11 26 26 21 19 20 20 23 20 20 18 18 20 22 22 22 24 28 28 28 26 24 22 20 17 15 14 15 15 14 14 17 19 23 22 22
17 17 16 14 15 17 13 16 15 25 37 33 32 28 27 25 27 26 23 23 24 24 24 22 21 21 23 26 26 26 28 29 30 29 27 25 23 21 19 18 19 18 17 16 17 19 20 22 24
18 19 17 14 10 10 26 17 14 35 37 35 29 31 29 30 29 29 28 27 26 27 25 26 26 27 25 26 28 30 31 31 32 32 32 30 28 26 25 24 22 21 20 20 20 21 23 24 25
25 19 27 23 22 23 17 16 21 32 33 31 31 32 33 31 34 33 33 32 30 28 29 29 28 30 31 30 29 30 30 31 34 35 35 33 32 31 30 29 26 25 24 23 23 23 24 25 26
26 27 23 22 25 21 15 18 18 24 36 38 26 36 37 39 38 36 37 37 34 33 30 28 29 28 31 34 34 33 32 31 31 34 35 35 36 35 33 32 29 28 27 26 25 23 23 23 23
28 26 28 28 29 20 17 17 26 35 40 36 32 36 40 42 46 47 43 43 41 39 38 33 30 31 29 33 35 37 36 35 34 34 36 36 37 37 36 33 32 30 29 28 26 25 23 22 22
30 30 31 31 27 28 33 28 26 41 43 45 40 39 39 39 46 50 52 47 48 45 44 42 37 33 32 31 37 37 41 40 38 35 34 35 36 37 38 36 35 33 31 30 29 28 27 23 22
Wind_Direction
52 57 63 64 66 46 75 78 87 89 88 95 105 116 123 136 139 134 127 120 123 127 133 132 121 122 125 126 125 128 120 119 119 138 128 124 109 109 110 109 107 106 103 96 89 82 72 61 56
61 64 71 51 58 37 65 77 81 93 98 100 106 119 129 130 128 132 130 122 121 128 135 128 122 122 123 125 127 127 144 124 119 138 139 127 117 118 118 115 112 103 95 88 80 74 65 62 64
66 68 68 90 89 95 85 77 80 93 100 105 111 118 121 125 132 137 133 126 122 127 129 134 128 121 124 130 131 134 171 136 112 143 152 120 122 125 118 110 104 97 92 84 77 71 72 71 79
69 68 85 54 71 77 78 72 77 83 92 102 106 111 118 123 130 137 134 124 122 127 129 132 136 135 131 140 143 134 141 144 153 154 114 128 124 122 114 112 106 99 89 84 84 81 79 84 88
69 78 69 64 65 69 74 76 72 80 89 91 96 109 116 117 115 123 126 123 125 128 134 136 138 140 135 138 145 141 158 181 175 134 122 128 128 119 115 113 106 99 92 85 83 86 86 87 88
74 97 89 62 65 71 73 72 79 78 83 94 98 98 114 121 116 120 126 125 122 127 133 131 127 133 139 130 135 124 141 161 165 134 125 131 125 119 117 109 98 89 91 92 92 93 91 92 94
89 86 73 72 74 70 67 66 81 92 90 94 97 99 115 118 120 130 131 129 123 126 130 122 128 136 130 127 119 100 140 109 115 129 131 129 127 122 116 105 95 97 98 98 96 96 99 100 99
89 88 81 87 82 80 79 68 72 90 101 113 111 107 105 119 114 116 129 129 127 127 123 109 116 135 132 129 126 110 105 122 129 135 134 134 129 122 117 108 104 102 101 98 99 101 101 102 96
121 85 92 104 96 91 86 77 67 81 115 119 124 126 125 124 125 127 131 132 135 133 128 123 128 129 138 136 134 129 134 129 134 140 141 132 128 123 116 110 108 104 104 105 108 108 103 97 93
100 72 122 110 107 94 90 89 68 68 125 136 121 133 141 147 140 136 136 137 135 132 133 133 144 142 144 146 139 139 136 134 135 141 135 132 129 123 120 113 107 113 113 114 114 106 99 92 88
129 143 126 104 99 90 82 86 82 71 82 146 138 143 142 147 164 159 159 156 144 136 138 144 147 158 159 158 150 146 146 143 147 141 139 136 128 125 122 116 120 117 117 113 113 105 100 95 84
137 127 139 113 102 94 75 85 87 79 83 108 153 146 167 167 174 173 178 181 166 151 142 152 154 157 163 165 160 154 153 153 150 148 142 137 132 129 122 126 123 126 125 121 115 111 106 94 82
198 204 191 124 99 78 58 64 82 82 72 85 102 126 146 169 164 174 189 191 190 171 156 151 163 164 164 162 165 162 160 162 159 153 149 140 135 132 129 130 128 128 128 122 116 113 107 95 90
164 179 211 197 12 7 20 46 66 93 92 80 84 96 127 151 159 162 170 191 193 187 171 163 167 171 169 165 165 167 166 169 165 160 154 140 141 137 135 136 135 135 132 127 124 121 111 102 90
218 217 248 256 290 338 2 46 357 310 175 105 87 87 92 119 125 141 157 176 186 188 179 170 175 178 170 172 168 175 169 171 170 166 157 147 147 144 139 142 145 145 139 136 128 124 122 112 100
245 112 280 269 272 264 308 57 19 342 247 183 336 105 112 118 110 103 139 160 181 187 191 187 185 182 175 176 174 183 178 176 176 170 164 158 154 152 152 152 153 149 143 139 132 127 126 120 109
332 244 261 268 254 221 246 320 3 24 215 204 231 281 219 160 121 100 111 151 163 181 197 200 198 191 187 180 179 186 185 182 180 177 171 165 161 163 163 162 161 154 148 145 142 134 133 127 119
179 306 231 257 255 250 243 246 275 36 56 288 287 262 264 226 198 178 145 147 170 167 178 197 202 198 194 191 187 189 189 186 183 182 178 173 170 173 173 172 170 164 158 154 142 141 140 143 132
221 233 271 263 262 259 243 241 232 224 66 13 312 286 251 243 229 203 197 186 185 187 187 196 193 202 199 197 200 194 191 187 186 186 183 179 178 180 183 186 184 180 172 157 162 156 148 152 155
226 236 272 269 252 250 243 227 239 210 209 266 271 281 259 251 243 235 216 208 194 192 190 190 207 211 205 211 212 203 192 191 190 188 184 180 180 183 192 195 196 195 190 180 175 172 169 176 169
236 237 239 252 258 243 248 255 275 245 240 245 262 231 247 260 257 247 237 221 210 204 203 201 209 208 214 216 216 200 195 193 194 190 188 186 182 180 189 202 204 209 212 206 195 196 200 190 202
239 230 241 245 241 234 245 261 287 283 267 250 258 262 249 245 253 259 253 235 226 219 210 212 207 210 212 216 212 202 198 199 198 197 195 193 192 189 187 194 207 212 220 227 228 225 234 228 241
243 244 239 242 238 239 245 243 236 250 285 285 276 273 262 256 250 248 253 253 241 230 226 221 218 216 211 217 216 209 206 207 207 208 206 206 207 206 202 202 201 210 220 225 238 246 248 254 260
252 254 256 253 253 249 249 242 233 268 264 226 240 224 266 262 258 247 245 248 250 243 239 231 225 224 225 219 222 219 218 216 215 216 218 219 223 224 228 228 224 223 222 227 237 244 250 259 266
251 253 257 267 264 271 264 250 224 224 244 241 256 257 263 252 257 254 246 243 245 248 243 238 235 230 226 230 222 224 223 224 224 223 227 231 235 236 240 247 246 243 245 248 252 253 254 256 259
252 251 251 230 243 240 246 243 219 238 242 256 263 254 250 250 249 251 254 252 244 241 242 244 238 239 232 231 233 229 229 229 230 230 232 236 242 247 252 258 260 254 254 257 256 256 258 256 259
255 251 248 256 254 245 233 263 234 257 264 261 257 251 249 246 246 246 251 251 253 247 244 240 246 243 238 237 234 237 236 235 232 233 236 239 243 247 250 255 259 259 258 260 260 261 260 261 259
259 260 260 259 254 245 255 254 249 274 261 255 258 255 247 244 241 244 248 251 252 254 251 247 241 243 245 240 239 236 236 237 238 237 239 242 246 247 249 252 253 257 264 268 268 269 268 268 265
265 264 259 253 250 250 248 255 243 241 261 270 259 253 250 241 241 244 246 247 248 250 253 252 249 238 242 245 243 241 239 238 237 241 243 245 247 250 252 250 254 258 266 266 265 267 266 268 271
260 259 259 260 260 257 249 238 271 248 255 262 261 260 258 254 244 241 241 244 243 246 249 253 254 246 237 243 244 242 242 241 241 240 244 247 248 250 253 252 255 258 263 265 267 268 270 271 274
Height
5891 5890 5890 5891 5890 5890 5888 5888 5886 5886 5885 5885 5886 5886 5885 5884 5885 5888 5887 5889 5891 5892 5894 5894 5895 5897 5899 5900 5902 5902 5904 5905 5907 5908 5908 5909 5910 5911 5911 5912 5914 5914 5915 5915 5915 5916 5916 5916 5916
5895 5894 5894 5890 5892 5896 5892 5892 5890 5889 5889 5888 5889 5889 5889 5888 5886 5889 5890 5892 5894 5895 5897 5897 5898 5899 5901 5902 5903 5904 5906 5908 5908 5910 5910 5912 5913 5914 5915 5915 5917 5918 5918 5919 5920 5920 5919 5919 5919
5898 5897 5899 5896 5903 5899 5895 5894 5893 5893 5892 5891 5892 5892 5892 5892 5892 5893 5894 5895 5896 5897 5899 5900 5901 5902 5902 5904 5905 5906 5907 5908 5910 5912 5913 5914 5915 5918 5918 5919 5921 5921 5922 5923 5922 5923 5923 5923 5923
5902 5902 5903 5901 5899 5899 5897 5897 5897 5896 5895 5894 5894 5895 5895 5894 5896 5896 5897 5898 5899 5900 5901 5902 5904 5904 5905 5906 5907 5908 5909 5911 5912 5914 5915 5919 5920 5920 5921 5923 5924 5924 5925 5926 5926 5926 5926 5927 5926
5905 5895 5903 5904 5902 5901 5900 5899 5900 5900 5899 5897 5897 5897 5897 5897 5897 5898 5899 5900 5901 5903 5904 5906 5907 5907 5907 5908 5908 5909 5910 5912 5914 5916 5919 5921 5923 5924 5926 5927 5928 5929 5929 5929 5929 5929 5929 5929 5929
5905 5892 5909 5908 5906 5904 5903 5902 5903 5902 5902 5901 5901 5900 5900 5899 5899 5900 5902 5903 5905 5906 5908 5909 5909 5909 5909 5910 5910 5911 5911 5913 5915 5918 5921 5924 5926 5928 5929 5930 5931 5931 5932 5932 5932 5932 5932 5933 5933
5912 5910 5911 5910 5909 5907 5906 5906 5905 5905 5905 5905 5904 5904 5904 5903 5902 5903 5905 5906 5907 5908 5910 5911 5911 5911 5912 5913 5915 5915 5914 5916 5919 5922 5925 5926 5930 5930 5932 5933 5934 5935 5936 5935 5936 5936 5937 5938 5938
5913 5914 5914 5913 5912 5911 5909 5910 5909 5908 5908 5908 5908 5907 5908 5906 5905 5905 5907 5909 5910 5911 5912 5913 5911 5913 5916 5917 5918 5919 5921 5922 5924 5926 5929 5930 5932 5933 5935 5936 5937 5938 5938 5939 5940 5941 5941 5941 5941
5911 5910 5916 5915 5914 5913 5912 5912 5912 5911 5911 5910 5910 5910 5911 5911 5910 5910 5910 5912 5913 5914 5915 5916 5917 5918 5920 5922 5922 5923 5925 5926 5928 5930 5933 5933 5935 5937 5938 5939 5940 5940 5942 5942 5944 5945 5945 5945 5944
5912 5916 5918 5917 5915 5915 5914 5913 5913 5913 5912 5913 5913 5913 5912 5913 5914 5914 5915 5915 5915 5916 5917 5919 5921 5922 5923 5924 5925 5926 5927 5929 5931 5933 5935 5937 5939 5939 5941 5942 5942 5944 5945 5946 5947 5948 5948 5949 5948
5919 5920 5920 5918 5917 5916 5916 5916 5915 5915 5914 5915 5915 5916 5916 5916 5916 5916 5917 5918 5919 5919 5919 5920 5922 5924 5925 5927 5928 5928 5930 5931 5934 5936 5938 5940 5941 5943 5944 5944 5945 5947 5948 5950 5949 5950 5951 5952 5951
5921 5920 5921 5920 5920 5919 5919 5918 5918 5918 5917 5917 5918 5917 5919 5919 5919 5919 5919 5920 5921 5922 5922 5923 5924 5925 5927 5929 5931 5931 5933 5935 5937 5939 5941 5943 5944 5946 5947 5947 5948 5950 5951 5952 5953 5952 5954 5954 5954
5922 5921 5921 5922 5922 5922 5922 5921 5920 5920 5920 5919 5919 5919 5919 5920 5920 5920 5920 5921 5922 5923 5924 5925 5927 5928 5929 5931 5934 5935 5936 5937 5940 5942 5944 5946 5947 5948 5949 5950 5951 5953 5953 5954 5956 5956 5957 5958 5957
5921 5922 5922 5924 5924 5925 5924 5923 5922 5922 5921 5922 5922 5921 5921 5921 5921 5921 5922 5923 5924 5925 5926 5927 5928 5930 5932 5933 5935 5937 5938 5939 5942 5945 5946 5948 5949 5950 5952 5952 5953 5954 5956 5957 5957 5958 5959 5960 5960
5923 5924 5923 5923 5926 5927 5925 5924 5924 5924 5924 5923 5923 5924 5923 5923 5923 5922 5922 5923 5925 5926 5928 5929 5930 5931 5933 5935 5937 5938 5940 5942 5944 5946 5947 5949 5951 5952 5953 5954 5955 5955 5956 5958 5959 5960 5961 5962 5962
5925 5926 5924 5924 5925 5927 5924 5925 5926 5926 5925 5925 5925 5925 5925 5925 5925 5924 5923 5924 5925 5927 5929 5930 5931 5932 5934 5936 5938 5939 5942 5943 5945 5947 5949 5950 5952 5954 5955 5956 5956 5957 5958 5960 5961 5962 5963 5963 5964
5927 5925 5924 5924 5925 5926 5927 5927 5928 5927 5926 5926 5927 5927 5927 5928 5927 5926 5925 5924 5925 5927 5930 5931 5932 5933 5935 5937 5939 5940 5942 5944 5946 5948 5950 5952 5953 5955 5956 5958 5959 5960 5961 5962 5963 5963 5964 5966 5965
5929 5926 5923 5923 5925 5926 5927 5927 5928 5927 5927 5928 5928 5928 5928 5928 5927 5928 5927 5926 5925 5927 5929 5931 5933 5934 5935 5937 5938 5940 5942 5944 5947 5949 5951 5953 5954 5956 5957 5959 5961 5962 5963 5964 5965 5965 5966 5967 5967
5923 5923 5923 5922 5923 5924 5926 5927 5927 5926 5927 5928 5928 5928 5928 5927 5927 5927 5927 5927 5927 5926 5928 5931 5933 5935 5936 5936 5937 5939 5942 5944 5947 5949 5951 5953 5954 5956 5958 5959 5961 5963 5964 5966 5966 5966 5966 5967 5968
5920 5922 5924 5920 5921 5923 5924 5925 5926 5926 5926 5926 5927 5928 5927 5927 5927 5927 5927 5927 5928 5927 5928 5930 5933 5934 5936 5937 5938 5939 5941 5944 5947 5949 5951 5953 5954 5956 5958 5960 5961 5963 5965 5965 5966 5967 5966 5966 5967
5918 5920 5919 5919 5920 5923 5923 5923 5924 5925 5925 5924 5924 5924 5925 5926 5926 5926 5927 5928 5928 5928 5928 5929 5931 5933 5936 5937 5938 5940 5942 5945 5947 5949 5951 5953 5954 5956 5957 5959 5961 5963 5965 5966 5967 5967 5967 5967 5968
5914 5913 5917 5917 5918 5922 5921 5926 5925 5922 5923 5923 5922 5921 5922 5924 5926 5926 5927 5928 5928 5929 5929 5929 5930 5932 5934 5937 5938 5939 5941 5943 5945 5947 5949 5951 5953 5955 5957 5958 5960 5962 5964 5965 5966 5966 5967 5967 5967
5907 5910 5912 5913 5915 5916 5918 5923 5927 5922 5925 5920 5919 5920 5920 5920 5922 5924 5925 5926 5927 5929 5929 5930 5931 5932 5933 5935 5937 5939 5941 5943 5945 5947 5949 5951 5953 5954 5956 5957 5958 5960 5961 5963 5964 5965 5966 5967 5967
5905 5907 5908 5910 5912 5913 5916 5918 5926 5925 5919 5917 5913 5920 5916 5917 5919 5920 5921 5923 5924 5926 5928 5928 5930 5931 5932 5932 5935 5937 5940 5942 5944 5947 5948 5950 5951 5953 5955 5956 5957 5959 5960 5961 5961 5963 5964 5964 5965
5901 5903 5905 5908 5909 5911 5915 5916 5920 5916 5908 5909 5912 5911 5912 5915 5915 5915 5916 5918 5920 5922 5923 5926 5928 5928 5929 5931 5932 5934 5936 5939 5942 5944 5946 5948 5949 5951 5952 5954 5955 5957 5958 5959 5959 5959 5959 5960 5960
5896 5899 5901 5903 5911 5915 5907 5911 5916 5904 5904 5905 5906 5904 5907 5907 5909 5911 5911 5911 5914 5916 5919 5920 5923 5924 5925 5927 5929 5930 5932 5935 5938 5940 5942 5944 5946 5947 5949 5950 5952 5954 5955 5955 5955 5955 5955 5955 5956
5889 5893 5893 5897 5900 5902 5906 5904 5900 5897 5896 5898 5897 5897 5899 5901 5901 5903 5905 5905 5906 5909 5912 5915 5916 5919 5922 5923 5924 5927 5928 5930 5933 5935 5937 5939 5941 5943 5945 5946 5948 5949 5950 5951 5951 5951 5950 5950 5950
5883 5885 5890 5890 5893 5895 5900 5900 5899 5890 5884 5885 5891 5888 5890 5892 5894 5895 5896 5898 5902 5903 5905 5907 5910 5912 5914 5916 5918 5920 5922 5925 5927 5929 5932 5935 5936 5936 5939 5941 5943 5944 5945 5946 5947 5946 5946 5945 5945
5877 5878 5880 5882 5885 5888 5893 5897 5888 5883 5878 5878 5879 5879 5880 5882 5884 5886 5889 5890 5894 5896 5897 5899 5902 5904 5907 5909 5912 5914 5916 5918 5919 5923 5926 5928 5930 5932 5933 5935 5937 5938 5940 5940 5941 5941 5940 5941 5941
5869 5871 5872 5873 5877 5878 5880 5885 5874 5873 5873 5869 5869 5871 5871 5873 5875 5876 5877 5881 5884 5887 5889 5891 5894 5895 5899 5901 5902 5906 5908 5910 5913 5916 5919 5921 5924 5925 5927 5930 5931 5933 5934 5935 5935 5936 5936 5936 5937